| time (UTC) | temp C | wind direction | speed KPH | gust KPH | rain 1hr cm | rain 24hr cm | rain mn cm | humidity % | barometer mb |
| 20260507194522 | 31 | 109 | 0.0 | 11.3 | 0.00 | 0.05 | 0.03 | 63 | 1012.8 |
| 20260507193024 | 31 | 70 | 0.0 | 16.1 | 0.00 | 0.05 | 0.03 | 64 | 1013.1 |
| 20260507191514 | 31 | 91 | 0.0 | 17.7 | 0.00 | 0.05 | 0.03 | 63 | 1013.2 |
| 20260507190013 | 31 | 157 | 0.0 | 17.7 | 0.00 | 0.05 | 0.03 | 63 | 1013.4 |
| 20260507184512 | 31 | 92 | 1.6 | 16.1 | 0.00 | 0.05 | 0.03 | 63 | 1013.4 |
| 20260507183016 | 32 | 116 | 0.0 | 6.4 | 0.00 | 0.05 | 0.03 | 62 | 1013.5 |
| 20260507181509 | 32 | 110 | 0.0 | 12.9 | 0.00 | 0.05 | 0.03 | 62 | 1013.5 |
| 20260507180013 | 31 | 107 | 0.0 | 11.3 | 0.00 | 0.05 | 0.03 | 62 | 1013.8 |
| 20260507174505 | 32 | 94 | 0.0 | 0.0 | 0.00 | 0.05 | 0.03 | 63 | 1014.0 |
| 20260507173006 | 31 | 87 | 1.6 | 17.7 | 0.00 | 0.05 | 0.03 | 64 | 1014.3 |
| 20260507171604 | 31 | 90 | 0.0 | 9.7 | 0.00 | 0.05 | 0.03 | 64 | 1014.6 |
| 20260507164631 | 31 | 103 | 0.0 | 19.3 | 0.00 | 0.05 | 0.03 | 65 | 1015.0 |
| 20260507163100 | 31 | 110 | 0.0 | 17.7 | 0.00 | 0.05 | 0.03 | 67 | 1015.3 |
| 20260507161601 | 30 | 115 | 0.0 | 11.3 | 0.00 | 0.05 | 0.03 | 69 | 1015.4 |
| 20260507160057 | 30 | 199 | 0.0 | 0.0 | 0.00 | 0.05 | 0.03 | 68 | 1015.6 |
| 20260507154556 | 31 | 126 | 0.0 | 3.2 | 0.00 | 0.05 | 0.03 | 64 | 1015.7 |
| 20260507153055 | 31 | 122 | 0.0 | 0.0 | 0.00 | 0.05 | 0.03 | 65 | 1015.7 |
| 20260507151552 | 31 | 146 | 0.0 | 8.0 | 0.00 | 0.05 | 0.03 | 64 | 1015.8 |
| 20260507150051 | 31 | 98 | 0.0 | 14.5 | 0.00 | 0.05 | 0.03 | 66 | 1016.0 |
| 20260507144549 | 30 | 92 | 0.0 | 0.0 | 0.00 | 0.05 | 0.03 | 67 | 1016.0 |
| 20260507143104 | 29 | 102 | 0.0 | 12.9 | 0.00 | 0.05 | 0.03 | 71 | 1016.2 |
| 20260507141603 | 29 | 129 | 0.0 | 6.4 | 0.00 | 0.05 | 0.03 | 73 | 1016.3 |
| 20260507140043 | 29 | 105 | 0.0 | 0.0 | 0.00 | 0.05 | 0.03 | 74 | 1016.3 |
| 20260507134541 | 28 | 151 | 0.0 | 0.0 | 0.00 | 0.05 | 0.03 | 77 | 1016.4 |
| 20260507133042 | 28 | 141 | 0.0 | 0.0 | 0.00 | 0.05 | 0.03 | 77 | 1016.1 |
| 20260507131549 | 28 | 127 | 0.0 | 0.0 | 0.00 | 0.05 | 0.03 | 78 | 1016.1 |
| 20260507130042 | 28 | 123 | 0.0 | 0.0 | 0.00 | 0.05 | 0.03 | 79 | 1016.1 |
| 20260507124538 | 27 | 158 | 0.0 | 9.7 | 0.00 | 0.05 | 0.03 | 81 | 1016.1 |
| 20260507123042 | 27 | 226 | 0.0 | 0.0 | 0.00 | 0.05 | 0.03 | 81 | 1016.0 |
| 20260507121540 | 27 | 125 | 0.0 | 0.0 | 0.00 | 0.05 | 0.03 | 80 | 1015.7 |
| 20260507120034 | 27 | 106 | 0.0 | 6.4 | 0.00 | 0.05 | 0.03 | 81 | 1015.5 |
| 20260507114532 | 27 | 88 | 0.0 | 0.0 | 0.00 | 0.05 | 0.03 | 81 | 1015.5 |
| 20260507113031 | 27 | 70 | 0.0 | 0.0 | 0.00 | 0.05 | 0.03 | 81 | 1015.3 |
| 20260507111526 | 26 | 37 | 0.0 | 0.0 | 0.00 | 0.05 | 0.03 | 80 | 1015.3 |
| 20260507110026 | 25 | 94 | 0.0 | 0.0 | 0.00 | 0.05 | 0.03 | 77 | 1015.2 |
| 20260507104524 | 25 | 212 | 0.0 | 0.0 | 0.00 | 0.05 | 0.03 | 76 | 1015.2 |
| 20260507103020 | 25 | 207 | 0.0 | 0.0 | 0.00 | 0.05 | 0.03 | 72 | 1015.1 |
| 20260507101519 | 24 | 207 | 0.0 | 0.0 | 0.00 | 0.05 | 0.03 | 70 | 1015.0 |
| 20260507100018 | 24 | 207 | 0.0 | 0.0 | 0.00 | 0.05 | 0.03 | 69 | 1014.8 |
| 20260507094517 | 24 | 150 | 0.0 | 0.0 | 0.00 | 0.05 | 0.03 | 68 | 1014.9 |
| 20260507093017 | 24 | 162 | 0.0 | 0.0 | 0.00 | 0.05 | 0.03 | 69 | 1014.8 |
| 20260507091519 | 24 | 207 | 0.0 | 0.0 | 0.00 | 0.05 | 0.03 | 68 | 1014.8 |
| 20260507090014 | 24 | 207 | 0.0 | 0.0 | 0.00 | 0.05 | 0.03 | 68 | 1014.8 |
| 20260507084509 | 24 | 207 | 0.0 | 0.0 | 0.00 | 0.05 | 0.03 | 66 | 1014.8 |
| 20260507083007 | 24 | 207 | 0.0 | 0.0 | 0.00 | 0.05 | 0.03 | 66 | 1014.9 |
| 20260507081505 | 24 | 207 | 0.0 | 0.0 | 0.00 | 0.05 | 0.03 | 65 | 1014.7 |
| 20260507080005 | 24 | 203 | 0.0 | 0.0 | 0.00 | 0.05 | 0.03 | 66 | 1014.7 |
| 20260507074505 | 25 | 203 | 0.0 | 0.0 | 0.00 | 0.05 | 0.03 | 66 | 1014.7 |
| 20260507073006 | 25 | 203 | 0.0 | 0.0 | 0.00 | 0.05 | 0.03 | 69 | 1014.8 |
| 20260507071502 | 25 | 196 | 0.0 | 0.0 | 0.00 | 0.05 | 0.03 | 65 | 1014.8 |
| 20260507070000 | 24 | 196 | 0.0 | 0.0 | 0.00 | 0.05 | 0.03 | 64 | 1014.9 |
| 20260507064634 | 24 | 196 | 0.0 | 0.0 | 0.00 | 0.05 | 0.03 | 62 | 1015.1 |
| 20260507063115 | 24 | 196 | 0.0 | 0.0 | 0.00 | 0.05 | 0.03 | 64 | 1015.3 |
| 20260507061554 | 24 | 196 | 0.0 | 0.0 | 0.00 | 0.05 | 0.03 | 63 | 1015.4 |
| 20260507060110 | 24 | 196 | 0.0 | 0.0 | 0.00 | 0.05 | 0.03 | 64 | 1015.6 |
| 20260507054554 | 24 | 212 | 0.0 | 0.0 | 0.00 | 0.05 | 0.03 | 64 | 1015.7 |
| 20260507053048 | 24 | 225 | 0.0 | 0.0 | 0.03 | 0.05 | 0.03 | 61 | 1016.0 |
| 20260507051600 | 24 | 169 | 0.0 | 0.0 | 0.03 | 0.05 | 0.03 | 50 | 1016.2 |
| 20260507050047 | 24 | 160 | 0.0 | 0.0 | 0.03 | 0.05 | 0.03 | 49 | 1016.5 |
| 20260507044539 | 25 | 184 | 0.0 | 0.0 | 0.03 | 0.05 | 0.03 | 74 | 1016.7 |
| 20260507043136 | 25 | 207 | 0.0 | 0.0 | 0.03 | 0.03 | 0.00 | 76 | 1016.9 |
| 20260507041533 | 24 | 207 | 0.0 | 0.0 | 0.03 | 0.03 | 0.00 | 76 | 1017.1 |
| 20260507040031 | 25 | 203 | 0.0 | 0.0 | 0.03 | 0.03 | 0.03 | 78 | 1017.1 |
| 20260507034531 | 25 | 203 | 0.0 | 0.0 | 0.03 | 0.03 | 0.03 | 79 | 1017.2 |
| 20260507033030 | 25 | 229 | 0.0 | 0.0 | 0.00 | 0.00 | 0.00 | 80 | 1017.2 |
| 20260507031528 | 25 | 206 | 0.0 | 0.0 | 0.00 | 0.00 | 0.00 | 79 | 1017.2 |
| 20260507030030 | 25 | 206 | 0.0 | 0.0 | 0.00 | 0.00 | 0.00 | 80 | 1017.3 |
| 20260507024529 | 25 | 206 | 0.0 | 0.0 | 0.00 | 0.00 | 0.00 | 81 | 1017.3 |
| 20260507023027 | 25 | 153 | 0.0 | 0.0 | 0.00 | 0.00 | 0.00 | 81 | 1017.3 |
| 20260507021526 | 25 | 172 | 0.0 | 0.0 | 0.00 | 0.00 | 0.00 | 81 | 1017.2 |
| 20260507020026 | 25 | 181 | 0.0 | 0.0 | 0.00 | 0.00 | 0.00 | 82 | 1017.1 |
| 20260507014526 | 25 | 203 | 0.0 | 0.0 | 0.00 | 0.00 | 0.00 | 82 | 1017.0 |
| 20260507013025 | 25 | 234 | 0.0 | 1.6 | 0.00 | 0.00 | 0.00 | 82 | 1016.9 |
| 20260507011525 | 26 | 134 | 0.0 | 0.0 | 0.00 | 0.00 | 0.00 | 81 | 1016.7 |
| 20260507010030 | 26 | 233 | 0.0 | 0.0 | 0.00 | 0.00 | 0.00 | 81 | 1016.6 |
| 20260507004523 | 26 | 212 | 0.0 | 0.0 | 0.00 | 0.00 | 0.00 | 81 | 1016.6 |
| 20260507003023 | 26 | 106 | 0.0 | 0.0 | 0.00 | 0.00 | 0.00 | 81 | 1016.4 |
| 20260507001522 | 26 | 226 | 0.0 | 0.0 | 0.00 | 0.00 | 0.00 | 80 | 1016.2 |
| 20260507000022 | 26 | 241 | 0.0 | 0.0 | 0.00 | 0.00 | 0.00 | 80 | 1016.0 |
| 20260506234521 | 27 | 106 | 0.0 | 0.0 | 0.00 | 0.00 | 0.00 | 79 | 1015.9 |
| 20260506233023 | 27 | 167 | 0.0 | 0.0 | 0.00 | 0.00 | 0.00 | 78 | 1015.6 |
| 20260506231520 | 27 | 186 | 0.0 | 0.0 | 0.00 | 0.00 | 0.00 | 78 | 1015.5 |
| 20260506230025 | 27 | 195 | 0.0 | 0.0 | 0.00 | 0.00 | 0.00 | 76 | 1015.3 |
| 20260506224519 | 28 | 143 | 0.0 | 0.0 | 0.00 | 0.00 | 0.00 | 75 | 1015.0 |
| 20260506223019 | 28 | 136 | 0.0 | 3.2 | 0.00 | 0.00 | 0.00 | 73 | 1014.8 |
| 20260506221517 | 28 | 114 | 0.0 | 0.0 | 0.00 | 0.00 | 0.00 | 71 | 1014.5 |
| 20260506220018 | 29 | 176 | 0.0 | 9.7 | 0.00 | 0.00 | 0.00 | 70 | 1014.4 |
| 20260506214517 | 30 | 143 | 0.0 | 0.0 | 0.00 | 0.00 | 0.00 | 66 | 1014.2 |
| 20260506213016 | 30 | 136 | 0.0 | 17.7 | 0.00 | 0.00 | 0.00 | 67 | 1014.1 |
| 20260506211514 | 31 | 122 | 0.0 | 0.0 | 0.00 | 0.00 | 0.00 | 65 | 1014.0 |
| 20260506210012 | 31 | 188 | 0.0 | 12.9 | 0.00 | 0.00 | 0.00 | 65 | 1014.0 |
| 20260506204510 | 30 | 125 | 0.0 | 12.9 | 0.00 | 0.00 | 0.00 | 63 | 1013.9 |
| 20260506203008 | 31 | 152 | 6.4 | 16.1 | 0.00 | 0.00 | 0.00 | 62 | 1013.8 |
| 20260506201516 | 31 | 96 | 0.0 | 8.0 | 0.00 | 0.00 | 0.00 | 63 | 1013.7 |
| 20260506200001 | 31 | 102 | 1.6 | 14.5 | 0.00 | 0.00 | 0.00 | 62 | 1013.9 |